Location: Butler
(32.5575°N, 84.2380°W)
Time: 03:29:10
(UTC+00:00)

Tiangong - Visible Passes

Search period start: 02 October 2022 00:00
Search period end: 12 October 2022 00:00
Orbit: 381 x 385 km, 41.5° (Epoch: 01 October)

Date Brightness Start Highest point End Pass type
(mag) Time Alt. Az. Time Alt. Az. Time Alt. Az.
05 Oct 0.2 00:07:25 10° SSE 00:08:17 11° SE 00:08:23 11° SE visible
06 Oct -1.2 00:41:38 10° SW 00:43:56 36° S 00:43:56 36° S visible
06 Oct -0.6 23:42:08 10° SSW 23:44:38 22° SE 23:47:06 10° E visible
07 Oct 0.6 01:18:13 10° W 01:19:19 19° W 01:19:19 19° W visible
08 Oct -2.2 00:17:57 10° WSW 00:21:05 88° NW 00:22:21 33° ENE visible
09 Oct -0.3 00:55:01 10° W 00:57:28 28° NNW 00:57:28 28° NNW visible
09 Oct -1.3 23:54:30 10° W 23:57:32 46° NNW 00:00:16 12° NE visible
11 Oct -0.2 00:31:53 10° WNW 00:34:23 21° NNW 00:35:09 19° N visible
11 Oct -0.6 23:31:11 10° W 23:34:00 29° NNW 23:36:48 10° NE visible
